Location: Unspecified
(54.1780°N, 0.0000°E)
Time: 11:03:22
(UTC+00:00)

Altair - Pass Details

Date: 26 June 2019
Orbit: 1501 x 1683 km, 47.2° (Epoch: 20 July)

Event Time Altitude Azimuth Distance (km) Brightness Sun altitude
Rises 22:56:59 0° 274° (W) 4,770 10.4 -11.2°
Reaches altitude 10° 23:00:08 10° 270° (W) 3,810 9.8 -11.3°
Maximum altitude 23:09:22 51° 199° (SSW) 1,992 7.8 -11.6°
Drops below altitude 10° 23:18:54 10° 127° (SE) 3,923 9.2 -11.9°
Sets 23:22:12 0° 123° (ESE) 4,921 9.7 -12.0°
